Regional Weather Roundup
Issued by NWS

Home | Current Version | Previous Version | Graphics & Text | Print | Product List | Glossary Off
Versions: 1 2 3 4 5 6 7 8 9 10 11 12 13 14 15 16 17 18 19 20 21 22 23 24 25 26 27 28 29 30 31 32 33 34 35 36 37 38 39 40 41 42 43 44 45 46 47 48 49 50

000
ASUS43 KDTX 290201
RWRMI
MICHIGAN HOURLY REGIONAL WEATHER ROUNDUP
NATIONAL WEATHER SERVICE DETROIT/PONTIAC MI
1000 PM EDT THU AUG 28 2014

NOTE: "FAIR" INDICATES FEW OR NO CLOUDS BELOW 12,000 FEET WITH NO
SIGNIFICANT WEATHER AND/OR OBSTRUCTION TO VISIBILITY.

MIZ047>049-052>055-059>063-066>070-074>076-081>083-290300-
SOUTHEAST LOWER MICHIGAN

CITY           SKY/WX    TMP DP  RH WIND       PRES   REMARKS
ADRIAN         PTCLDY    63  57  81 SE5       30.14R
ALMA           CLOUDY    58  53  83 E3        30.13S
ANN ARBOR      PTCLDY    60  54  80 CALM      30.13R
BAD AXE        MOCLDY    53  51  95 CALM      30.17R
CARO           PTCLDY    57  52  83 E3        30.15S
DETROIT CITY   PTCLDY    66  52  60 E6        30.15R
DETROIT        MOCLDY    65  53  65 E3        30.15R
FLINT          PTCLDY    65  54  67 NE8       30.14R
GROSSE ILE     PTCLDY    66  55  68 E3        30.14R
HILLSDALE      PTCLDY    62  58  89 E3        30.13R
HOWELL         PTCLDY    58  56  92 CALM      30.14R

CITY           SKY/WX    TMP DP  RH WIND       PRES   REMARKS
JACKSON        PTCLDY    63  53  70 E6        30.13R
LAMBERTVILLE   PTCLDY    64  55  72 E3        30.13F
LANSING        PTCLDY    61  52  72 NE3       30.13S
LAPEER         FAIR      59  52  77 SE3       30.16R
MASON          PTCLDY    59  54  84 CALM      30.13S
MONROE         PTCLDY    61  55  82 CALM      30.13R
MT. CLEMENS    CLEAR     64  45  50 NE8       30.14R
PONTIAC        MOCLDY    63  53  70 E6        30.14R
PORT HOPE        N/A     56  51  84 CALM      30.15R
PORT HURON     PTCLDY    50  50 100 CALM      30.16S
TRI CITIES     PTCLDY    61  55  81 SE5       30.15R
TROY           PTCLDY    66  50  55 E5        30.17R
SAGINAW HB     PTCLDY    61  54  77 E8        30.14S
$$
MIZ043>046-050>051-056>058-064>065-071>073-077>080-290300-
SOUTHWEST LOWER MICHIGAN

CITY           SKY/WX    TMP DP  RH WIND       PRES   REMARKS
BATTLE CREEK   PTCLDY    67  53  61 E6        30.12R
BENTON HARBOR  MOCLDY    68  59  73 E7        30.08R
BIG RAPIDS     CLOUDY    63  58  85 E7        30.12R
COLDWATER      PTCLDY    68  57  69 E6        30.12R
FREMONT        FAIR      64  57  78 CALM      30.10S
HOLLAND        MOCLDY    67  54  63 E6        30.10S
GRAND RAPIDS   CLOUDY    65  57  75 E6        30.12R
IONIA          FAIR      61  52  71 E5        30.12R
KALAMAZOO      PTCLDY    67  56  67 CALM      30.12R
LUDINGTON      CLOUDY    61  56  85 CALM      30.11S
MARSHALL       PTCLDY    62  54  75 CALM      30.12R
MOUNT PLEASANT MOCLDY    59  53  79 E3        30.12S
MUSKEGON       CLOUDY    67  53  61 SE5       30.10S
SOUTH HAVEN    MOCLDY    67  57  71 E6        30.09R
$$
MIZ016>042-290300-
NORTHERN LOWER MICHIGAN

CITY           SKY/WX    TMP DP  RH WIND       PRES   REMARKS
ALPENA         MOCLDY    52  48  86 CALM      30.15R
BEAVER ISLAND  MOCLDY    53  51  94 CALM      30.13S
CADILLAC       MOCLDY    58  53  83 CALM      30.13R
CHARLEVOIX     PTCLDY    57  51  81 CALM      30.15F
FRANKFORT      CLOUDY    59  54  81 CALM      30.11S
GAYLORD        PTCLDY    57  49  74 CALM      30.14R
GRAYLING       PTCLDY    54  53  97 CALM      30.14S
HARBOR SPRINGS MOCLDY    56  49  78 CALM      30.14R
HOUGHTON LAKE  PTCLDY    53  51  93 E6        30.14R
MANISTEE       CLOUDY    61  54  77 CALM      30.12R
OSCODA         MOCLDY    55  50  82 CALM      30.14F
PELLSTON       MOCLDY    51  49  92 CALM      30.14R
TRAVERSE CITY  MOCLDY    60  52  74 CALM      30.11R
$$
MIZ007>008-015-290300-
EASTERN UPPER MICHIGAN

CITY           SKY/WX    TMP DP  RH WIND       PRES   REMARKS
KINROSS        PTCLDY    59  50  72 S5        30.13S
MACKINAC ISLAN MOCLDY    54  49  82 CALM      30.13R
NEWBERRY       MOCLDY    52  48  86 SW8       30.12S
S. S. MARIE    CLEAR     55  47  74 CALM      30.12R
$$
MIZ004>006-011>014-085-290300-
CENTRAL UPPER MICHIGAN

CITY           SKY/WX    TMP DP  RH WIND       PRES   REMARKS
MANISTIQUE     MOCLDY    53  51  94 CALM      30.11R
ESCANABA       CLOUDY    63  52  67 SE6       30.10R
MENOMINEE      CLOUDY    63  54  72 S6        30.08S
SAWYER-GWINN   CLEAR     57  52  82 S8        30.10R
$$
MIZ001>003-009>011-084-290300-
WESTERN UPPER MICHIGAN

CITY           SKY/WX    TMP DP  RH WIND       PRES   REMARKS
IRON MOUNTAIN  CLOUDY    62  56  80 SE8       30.08R
HOUGHTON       MOCLDY    57  51  80 E8        30.05S
COPPER HARBOR    N/A     59  49  69 SW9       30.05S
$$

ABBREVIATIONS USED IN REMARKS
   TC - TEMPERATURE IN CELSIUS
  WCI - WIND CHILL INDEX
   HX - HEAT INDEX
  VSB - VISIBILITY



USA.gov is the U.S. government's official web portal to all federal, state and local government web resources and services.